Regional Weather Roundup
Issued by NWS

Home | Current Version | Previous Version | Text Only | Print | Product List | Glossary On
Versions: 1 2 3 4 5 6 7 8 9 10 11 12 13 14 15 16 17 18 19 20 21 22 23 24 25 26 27 28 29 30 31 32 33 34 35 36 37 38 39 40 41 42 43 44 45 46 47 48 49
000
ASUS45 KBOU 250507
RWRCO

WEATHER ROUNDUP FOR COLORADO
NATIONAL WEATHER SERVICE DENVER/BOULDER CO
1000 PM MST WED DEC 24 2014

NOTE: "FAIR" INDICATES FEW OR NO CLOUDS BELOW 12000 FEET WITH NO
SIGNIFICANT WEATHER AND/OR OBSTRUCTIONS TO VISIBILITY.

COZ001>005-013-030-031-250600-
...NORTHWEST COLORADO...

CITY           SKY/WX    TMP DP  RH WIND       PRES   REMARKS
CRAIG            N/A     27  15  61 E9        29.66F WCI  18
HAYDEN         CLOUDY    21  10  63 E12       29.65F WCI   9
MEEKER         CLOUDY    33  15  47 W18       29.65F WCI  22
MOUNT WERNER   NOT AVBL
STEAMBOAT SPGS CLOUDY    16  11  78 CALM      29.67F
WALDEN         CLOUDY    23  14  68 SE17      29.61S WCI   9
$$

COZ006>008-011-250600-
...WEST CENTRAL VALLEYS...

CITY           SKY/WX    TMP DP  RH WIND       PRES   REMARKS
GRAND JUNCTION CLOUDY    27  21  78 CALM      29.73F
MONTROSE       CLOUDY    28  19  69 S6        29.74F WCI  22
EAGLE          PTCLDY    16  10  79 CALM      29.76F
RIFLE          CLOUDY    25  16  68 E3        29.74F
DELTA          CLOUDY    30  18  59 E6        29.74F WCI  24
NUCLA          CLOUDY    30  19  64 S3        29.78F
$$

COZ017>023-064>068-250600-
...SOUTHWEST COLORADO...

CITY           SKY/WX    TMP DP  RH WIND       PRES   REMARKS
DURANGO        CLOUDY    25  14  63 NE5       29.86F WCI  19
CORTEZ         MOCLDY    29  21  72 E5        29.80F WCI  24
PAGOSA SPRINGS CLOUDY    18   8  65 CALM      29.88F
TELLURIDE      CLOUDY    32  17  53 CALM      29.78F
WOLF CREEK PAS MOCLDY    12   3  67 MISG      29.81F
$$

COZ009-010-012-014-032>034-037-058>063-250600-
...CENTRAL COLORADO...

CITY           SKY/WX    TMP DP  RH WIND       PRES   REMARKS
ASPEN          CLOUDY    18  12  77 S6        29.69F WCI  10
BUENA VISTA    PTCLDY    22  10  59 SW6       29.68S WCI  14
COPPER MTN     PTCLDY    25   7  46 SW13G24   29.70F WCI  13
BERTHOUD PASS  FAIR      16  10  79 MISG      29.61R
COTTONWOOD PAS PTCLDY    32  10  40 W20G31    29.67F WCI  20
GUNNISON       MOCLDY    -2 -18  46 CALM      29.86F
KREMMLING      MOCLDY     0  -6  78 CALM      29.71F
LEADVILLE      PTCLDY    21   5  50 N5        29.67F WCI  15
MONARCH PASS   PTCLDY    14  10  85 W40       29.82F WCI  -9
SALIDA         PTCLDY    34   8  33 SW15G23   29.74F WCI  25
SUNLIGHT       CLOUDY   N/A N/A N/A MISG      29.70F HAZE
WILKERSON PASS PTCLDY    18  10  73 SW18G28   29.63F WCI   2
$$

COZ069>075-250600-
...SAN LUIS VALLEY/SANGRE DE CRISTO MOUNTAINS...

CITY           SKY/WX    TMP DP  RH WIND       PRES   REMARKS
ALAMOSA        MOCLDY    14   5  67 N7        29.79F WCI   4
LA VETA PASS   MOCLDY    14   5  67 MISG      29.68F
SAGUACHE       MOCLDY     7   0  72 NW9       29.82S WCI  -7
$$

COZ035-036-038>040-250600-
...NORTHERN COLORADO FRONT RANGE...

CITY           SKY/WX    TMP DP  RH WIND       PRES   REMARKS
DENVER INTL AP CLOUDY    39  19  44 SW17      29.48F
DMNS CITY PARK   N/A     37  19  47 S6        29.49F
AURORA         MOCLDY    38  17  41 SW12      29.50F
FRONT RANGE AP NOT AVBL
ERIE MUNI ARPT   N/A     50  11  20 W14G30    29.47S
BOULDER MUN AP MOCLDY    45  16  31 W8        29.48S
CENTENNIAL     MOCLDY    39  17  41 SW8       29.50F
BROOMFIELD     MOCLDY    41  14  33 W9        29.50F
FORT COLLINS   CLOUDY    28  16  59 CALM      29.50S
LONGMONT       CLOUDY    50  14  23 SW14      29.49F
$$

COZ041-046-047-076>085-087-088-250600-
...PIKES PEAK/PALMER DIVIDE AND SOUTHERN FOOTHILLS...

CITY           SKY/WX    TMP DP  RH WIND       PRES   REMARKS
COLO. SPRINGS  CLOUDY    33  15  47 CALM      29.57F
A. F. ACADEMY  MOCLDY    42   8  25 N12G21    29.54F
ELLICOTT       NOT AVBL
FALCON         CLOUDY    39  11  32 W7        29.57F
FORT CARSON    MOCLDY    39  15  38 S8        29.54F
LIMON          CLOUDY    28  19  69 SE7       29.54F WCI  21
MONUMENT HILL  CLOUDY    37  12  35 SW12      29.55F
TRINIDAD       CLOUDY    38  19  46 W14       29.61F
$$

COZ042>045-048>051-090-091-250600-
...NORTHEAST COLORADO...

CITY           SKY/WX    TMP DP  RH WIND       PRES   REMARKS
GREELEY ARPT   CLOUDY    25  10  54 N8        29.48S WCI  16
AKRON          CLOUDY    38  20  48 S13       29.47F
BURLINGTON     CLOUDY    35  20  54 S15       29.54F WCI  25
WRAY           CLOUDY    34  24  65 S7        29.52F WCI  28
STERLING       CLOUDY    27  23  86 W5        29.49S WCI  21
HOLYOKE        CLOUDY    34  27  75 SW9       29.50F WCI  26
FORT MORGAN    CLOUDY    30  23  75 CALM      29.48F
$$

COZ086-089-092>099-250600-
...SOUTHEAST COLORADO...

CITY           SKY/WX    TMP DP  RH WIND       PRES   REMARKS
PUEBLO         CLOUDY    28  19  69 CALM      29.57F
LA JUNTA       CLOUDY    38  22  52 S12       29.56F
LAMAR          CLOUDY    30  20  66 W9        29.56F WCI  22
SPRINGFIELD      N/A     32  19  58 SW8       29.59F WCI  25
$$


USA.gov is the U.S. government's official web portal to all federal, state and local government web resources and services.